Preview of NWS' New Version of Forecast
This preview is not operational and should not be used for support decisions.

Regional Weather Roundup (RWR)

Issued by National Weather Service (NWS)

                            
000
ASUS43 KMKX 211500
RWRWI 

WISCONSIN REGIONAL WEATHER ROUNDUP
NATIONAL WEATHER SERVICE MILWAUKEE/SULLIVAN WI
1000 AM CDT WED AUG 21 2019

NOTE: "FAIR" INDICATES FEW OR NO CLOUDS BELOW 12,000 FEET WITH NO
SIGNIFICANT WEATHER AND/OR OBSTRUCTIONS TO VISIBILITY.

WIZ001-002-006>008-014>016-023>028-211600-
NORTHWEST WISCONSIN
  
CITY           SKY/WX    TMP DP  RH WIND       PRES   REMARKS
SUPERIOR ARPT  FAIR      65  51  58 NW9       30.05S                  
ASHLAND        FAIR      68  54  60 W9        30.03S                  
HAYWARD        FAIR      65  53  65 VRB6      30.06R                  
SIREN          FAIR      65  52  62 N6        30.08R                  
CUMBERLAND     FAIR      63  50  63 W9        30.08R                  
RICE LAKE      FAIR      66  51  58 NW6       30.07S                  
CHETEK         FAIR      67  55  65 CALM      30.06R                  
LADYSMITH      FAIR      67  55  64 NW8       30.06S                  
EAU CLAIRE     NOT AVBL                                               
MENOMONIE      FAIR      65  52  61 NW5       30.06S                  
NEW RICHMOND   FAIR      66  55  68 NW7       30.07S                  
OSCEOLA        FAIR      66  54  66 N5        30.11R                  
$$
 
WIZ003>005-009-010-017-018-211600-
NORTH CENTRAL WISCONSIN
  
CITY           SKY/WX    TMP DP  RH WIND       PRES   REMARKS
MANITOWISH WTR FAIR      64  50  60 NW9       30.03R                  
ARBOR VITAE    FAIR      64  54  69 N8        30.02S                  
WOODRUFF       FAIR      64  54  69 N8        30.02S                  
RHINELANDER    FAIR      65  55  70 NW7       30.03R                  
EAGLE RIVER    FAIR      66  51  57 W12       30.01S                  
LAND O LAKES   FAIR      66  49  52 NW10      30.02S                  
PHILLIPS       FAIR      64  56  76 NW5       30.03S                  
TOMAHAWK       FAIR      64  54  72 W5        30.04S                  
MEDFORD        FAIR      64  54  68 NW6       30.03F                  
MERRILL        FAIR      67  57  69 N7        30.03F                  
$$
 
WIZ029-030-035-036-043>047-211600-
CENTRAL WISCONSIN
  
CITY           SKY/WX    TMP DP  RH WIND       PRES   REMARKS
WAUSAU         FAIR      69  57  65 NW9       30.00R                  
MOSINEE        MOSUNNY   70  61  73 NW9       30.02S                  
MARSHFIELD     FAIR      70  57  63 N13       30.02S                  
STEVENS POINT  FAIR      68  59  73 NW9       30.01S                  
WAUPACA        FAIR      75  62  62 N7        29.98S                  
WAUTOMA        PTSUNNY   71  65  81 N7        29.98F                  
WISC RAPIDS    FAIR      73  60  63 N15       30.01S                  
CAMP DOUGLAS   NOT AVBL                                               
$$
 
WIZ011>013-019>022-031-037>040-048>050-211600-
NORTHEAST WISCONSIN
  
CITY           SKY/WX    TMP DP  RH WIND       PRES   REMARKS
ANTIGO         FAIR      66  59  80 NW9       30.01F                  
SHAWANO        PTSUNNY   72  58  60 CALM      29.98R                  
OCONTO         CLOUDY    69  62  76 NW6       29.96R                  
STURGEON BAY   CLOUDY    68  64  87 N8        29.95S                  
GREEN BAY      CLOUDY    72  62  71 N3        29.96S                  
MANITOWOC      CLOUDY    72  66  81 N8        29.95R                  
APPLETON       MOSUNNY   72  66  83 N8        29.96S                  
CLINTONVILLE   CLOUDY    72  56  57 N8        29.98S                  
OSHKOSH        PTSUNNY   72  64  76 N9        29.95S                  
$$
 
WIZ032>034-041-042-053>061-211600-
SOUTHWEST WISCONSIN
  
CITY           SKY/WX    TMP DP  RH WIND       PRES   REMARKS
LA CROSSE      FAIR      74  61  63 N12       30.02S                  
SPARTA         FAIR      69  59  70 NW7       30.03S                  
VIROQUA        FAIR      70  65  85 N8        30.03R                  
BOSCOBEL       CLOUDY    75  66  73 N5        30.01R                  
PRAIRIE DU CHI CLOUDY    71  66  84 NW5       30.01R                  
PLATTEVILLE    FAIR      76  74  93 N5        30.00R                  
$$

WIZ056-057-062-063-064-067-068-211600-
SOUTH CENTRAL WISCONSIN
  
CITY           SKY/WX    TMP DP  RH WIND       PRES   REMARKS
REEDSBURG      PTSUNNY   71  67  87 NW10      30.00R                  
BARABOO/DELLS  CLOUDY    70  65  84 N6        30.00R                  
LONE ROCK      CLOUDY    72  67  84 NW5       30.00R                  
MINERAL POINT    N/A     77  73  88 MISG      30.01R                  
MADISON        PTSUNNY   78  68  71 VRB7      29.96R HX  80           
MIDDLETON      PTSUNNY   77   7   6 CALM      29.98R                  
WATERTOWN      FAIR      76  73  90 W6        29.96S                  
MONROE         FAIR      77  68  74 NW5       29.98S                  
JANESVILLE     PTSUNNY   79  72  78 N6        29.96S HX  82           
$$
 
WIZ051-052-058>065-066-070>072-211600-
SOUTHEAST WISCONSIN
  
CITY           SKY/WX    TMP DP  RH WIND       PRES   REMARKS
MILWAUKEE      CLOUDY    80  66  62 NW6       29.94S HX  82           
WAUKESHA       PTSUNNY   73  68  83 W6        29.97S                  
MILWAUKEE/TIMM PTSUNNY   77  64  65 W5        29.95F                  
RACINE         FAIR      78  69  73 W8        29.96S HX  80           
KENOSHA        FAIR      79  73  82 W8        29.95F HX  82           
FOND DU LAC    CLOUDY    75  67  76 NW9       29.95S                  
SHEBOYGAN      PTSUNNY   76  67  73 MISG      29.94S                  
WEST BEND      FAIR      75  68  78 W7        29.95S                  
JUNEAU         FAIR      74  68  81 CALM      29.96F                  
$$

LSZ147-162-211600-
LAKE SUPERIOR
  
STATION/POSITION TIME  TEMP    WIND        PRES    WAVE
                       AIR SEA DIR/SP/G            HT/PER
                 (UTC) (F)     (DEG/KT/KT) (MB)    (FT/S)
W MID LAKE BUOY  1350   62 63  310/ 12/ 14 1014.2R   1/ 3
DEVILS ISLAND    1400   61     310/ 14/ 16 1016.1R
SAXON HARBOR     1430   65     280/  5/ 11 1015.9R
$$
 
LMZ867-665-643>646-211600-
LAKE MICHIGAN
  
STATION/POSITION TIME  TEMP    WIND        PRES    WAVE
                       AIR SEA DIR/SP/G            HT/PER
                 (UTC) (F)     (DEG/KT/KT) (MB)    (FT/S)
S GREEN BAY BUOY 1430   73 70  350/  8/ 10 1014.4R
N MID LAKE BUOY  1440   66 70  340/  8/ 10 1013.6R
NORTHPORT PIER   1440   67     320/  4/  6 1013.5S
KEWAUNEE LAKESHO 1424   72     350/  4/  9 1013.1
SHEBOYGAN LAKESH 1400   74     270/  8/  9 1013.4F
PORT WASHINGTON  1440   78     270/  6/  9 1014.6S
S MID LAKE BUOY  1440   73 74  280/  8/ 10 1014.0F
KENOSHA   LAKESH 1400   75     280/  7/ 12 1013.9
$$

TC  - TEMPERATURE IN CELSIUS
VSB - VISIBILITY IN STATUTE MILES
WCI - WIND CHILL INDEX
HX  - HEAT INDEX